Total_Precipitation_Accumulation
1.47 1.51 1.51 1.56 1.48 1.59 1.79 1.98 1.94 1.98 2.02 1.89 1.62 1.48 1.48 1.44 1.45 1.46 1.50 1.76 1.67 1.64 2.03 2.15 1.98 1.78 1.63 1.38 1.14 0.95 0.85 0.79 0.70 0.54 0.45 0.49 0.58 0.65 0.60 0.51 0.47 0.44 0.35
1.84 1.76 1.59 1.62 1.57 1.63 1.73 1.91 2.01 2.28 2.23 2.13 1.71 1.54 1.56 1.64 1.64 1.69 1.71 1.98 1.87 1.64 1.82 2.02 2.12 2.04 1.88 1.70 1.44 1.22 1.05 0.94 0.81 0.58 0.48 0.46 0.52 0.63 0.62 0.61 0.55 0.51 0.42
2.02 1.94 1.75 1.61 1.66 1.73 1.81 1.84 1.97 2.25 2.18 2.06 1.78 1.67 1.58 1.50 1.40 1.46 1.55 1.71 1.66 1.59 1.66 1.79 1.99 2.04 2.00 1.98 1.85 1.68 1.40 1.17 1.00 0.76 0.58 0.46 0.41 0.47 0.49 0.53 0.54 0.53 0.44
2.01 1.97 1.75 1.57 1.76 1.77 1.83 1.95 2.02 2.16 2.24 2.26 1.98 1.72 1.60 1.50 1.35 1.35 1.33 1.36 1.45 1.23 1.45 1.67 1.81 1.89 2.12 2.27 2.32 2.33 1.97 1.51 1.17 0.97 0.76 0.57 0.46 0.42 0.37 0.37 0.43 0.41 0.34
1.88 1.94 1.69 1.56 1.77 1.92 1.92 1.77 2.04 2.25 2.23 2.25 1.94 1.70 1.47 1.33 1.18 1.13 1.16 1.12 1.16 1.13 1.19 1.30 1.43 1.54 1.97 2.46 2.74 2.81 2.62 2.09 1.53 1.23 1.07 0.90 0.71 0.57 0.42 0.34 0.34 0.30 0.26
1.68 1.89 1.61 1.59 1.84 1.91 1.86 1.93 2.10 2.25 2.13 2.17 1.93 1.51 1.26 1.00 0.96 0.88 0.83 0.86 0.81 0.75 0.84 1.07 1.38 1.30 1.66 2.05 2.32 2.57 2.77 2.60 2.05 1.56 1.37 1.24 1.09 0.86 0.62 0.47 0.40 0.35 0.29
1.73 2.01 1.75 1.76 1.80 1.74 1.74 1.92 2.06 1.98 1.84 2.24 2.17 1.47 0.97 0.76 0.68 0.53 0.57 0.59 0.53 0.57 0.75 1.04 1.25 1.33 1.28 1.35 1.52 1.78 2.25 2.55 2.41 1.98 1.71 1.54 1.42 1.13 0.84 0.68 0.52 0.42 0.34
1.70 1.80 1.82 1.74 1.73 1.71 1.56 1.64 1.88 1.77 1.47 1.90 2.06 1.85 1.23 0.79 0.56 0.40 0.43 0.44 0.48 0.61 0.68 0.76 1.01 1.23 1.22 1.36 1.25 1.19 1.61 2.10 2.42 2.39 2.11 1.77 1.48 1.18 0.98 0.85 0.68 0.54 0.44
1.72 1.80 1.70 1.55 1.51 1.50 1.38 1.39 1.59 1.66 1.45 1.48 1.83 2.08 1.60 1.01 0.76 0.50 0.51 0.53 0.66 0.78 0.79 0.83 0.91 1.05 1.13 1.33 1.46 1.43 1.28 1.45 1.98 2.59 2.57 2.10 1.56 1.19 1.01 0.98 0.95 0.76 0.61
1.88 1.77 1.58 1.41 1.25 1.21 1.17 1.13 1.29 1.42 1.43 1.21 1.35 1.48 1.44 1.35 1.22 0.81 0.60 0.63 0.78 0.85 0.89 0.93 0.95 1.01 1.11 1.32 1.47 1.48 1.20 1.09 1.33 2.08 2.50 2.40 1.93 1.41 1.15 1.19 1.46 1.36 0.97
1.84 1.64 1.50 1.37 1.26 1.15 1.08 1.05 1.10 1.13 1.16 1.07 1.11 1.18 1.25 1.26 1.20 1.11 0.84 0.80 0.80 0.67 0.69 0.75 0.89 1.15 1.25 1.34 1.55 1.50 1.38 1.32 1.29 1.42 1.69 1.90 1.95 1.72 1.48 1.50 1.92 2.14 1.86
1.41 1.33 1.21 1.12 1.07 1.07 1.07 1.04 1.00 1.01 1.02 1.04 1.04 1.05 1.16 1.25 1.29 1.30 1.13 0.99 0.89 0.74 0.71 0.73 0.81 1.00 1.11 1.19 1.24 1.34 1.33 1.28 1.17 1.14 1.18 1.28 1.43 1.60 1.73 1.92 2.31 2.65 2.77
0.83 0.79 0.80 0.81 0.81 0.82 0.82 0.84 0.82 0.82 0.91 0.98 1.00 1.05 1.14 1.23 1.31 1.34 1.25 1.05 0.96 0.86 0.90 0.86 0.79 0.90 0.93 1.11 1.19 1.09 0.96 0.95 0.83 0.81 0.86 0.93 1.08 1.26 1.38 1.54 1.92 2.35 2.69
0.60 0.60 0.62 0.63 0.63 0.65 0.67 0.71 0.69 0.69 0.71 0.77 0.80 0.97 1.08 1.08 1.18 1.28 1.29 1.24 1.15 1.09 1.16 1.09 0.94 0.90 0.95 1.04 1.04 0.94 0.87 0.75 0.61 0.54 0.54 0.58 0.66 0.83 1.01 1.18 1.37 1.59 1.83
0.56 0.57 0.59 0.62 0.64 0.67 0.68 0.67 0.65 0.66 0.74 0.79 0.81 0.91 1.00 1.04 1.10 1.19 1.28 1.33 1.38 1.34 1.31 1.25 1.04 0.98 0.95 0.93 0.97 0.91 0.95 0.76 0.51 0.42 0.41 0.43 0.44 0.48 0.60 0.78 0.95 1.11 1.33
0.58 0.58 0.57 0.62 0.65 0.64 0.62 0.61 0.59 0.62 0.72 0.81 0.90 1.01 1.05 1.04 1.06 1.15 1.28 1.44 1.54 1.52 1.38 1.15 1.04 1.07 1.09 0.99 0.93 0.80 0.76 0.73 0.55 0.43 0.39 0.39 0.39 0.41 0.46 0.60 0.75 0.88 1.04
0.56 0.57 0.60 0.60 0.60 0.60 0.60 0.62 0.62 0.67 0.73 0.78 0.82 0.93 1.02 1.04 1.07 1.12 1.21 1.30 1.45 1.57 1.44 1.22 1.17 1.22 1.28 1.25 1.09 0.90 0.76 0.69 0.59 0.47 0.38 0.37 0.37 0.42 0.48 0.55 0.66 0.77 0.85
0.62 0.63 0.64 0.63 0.59 0.60 0.69 0.75 0.74 0.78 0.83 0.84 0.85 0.87 0.85 0.91 1.02 1.03 1.09 1.13 1.24 1.44 1.40 1.31 1.33 1.37 1.40 1.34 1.25 1.07 0.88 0.77 0.72 0.56 0.42 0.37 0.36 0.38 0.42 0.42 0.50 0.65 0.77
0.67 0.67 0.71 0.78 0.79 0.78 0.78 0.82 0.88 0.89 0.82 0.77 0.77 0.77 0.74 0.76 0.81 0.89 1.00 0.98 1.01 1.13 1.27 1.33 1.43 1.51 1.58 1.47 1.29 1.15 1.02 0.93 0.74 0.64 0.53 0.43 0.40 0.38 0.39 0.39 0.43 0.51 0.64
0.59 0.63 0.70 0.82 0.91 0.96 0.97 0.91 0.86 0.84 0.78 0.72 0.67 0.64 0.65 0.68 0.71 0.76 0.86 0.90 0.93 1.02 1.15 1.24 1.40 1.60 1.62 1.65 1.53 1.31 1.21 1.15 0.91 0.67 0.62 0.55 0.49 0.44 0.40 0.36 0.37 0.44 0.54
0.55 0.67 0.79 0.88 1.03 1.09 1.02 0.97 0.88 0.84 0.82 0.72 0.64 0.58 0.55 0.53 0.56 0.63 0.65 0.72 0.81 0.91 0.94 1.03 1.17 1.41 1.54 1.65 1.61 1.42 1.28 1.29 1.17 0.87 0.72 0.67 0.64 0.57 0.51 0.45 0.36 0.36 0.44
0.56 0.62 0.69 0.77 0.82 0.75 0.75 0.72 0.66 0.64 0.64 0.61 0.56 0.55 0.50 0.44 0.45 0.46 0.43 0.50 0.58 0.65 0.75 0.89 0.96 1.16 1.36 1.47 1.59 1.67 1.54 1.39 1.33 1.18 1.08 0.99 0.86 0.80 0.67 0.53 0.43 0.34 0.34
0.56 0.61 0.62 0.65 0.65 0.64 0.53 0.45 0.43 0.44 0.48 0.50 0.52 0.53 0.42 0.36 0.42 0.45 0.42 0.38 0.39 0.42 0.50 0.69 0.81 0.91 1.14 1.36 1.54 1.71 1.71 1.63 1.53 1.45 1.37 1.33 1.12 0.95 0.81 0.68 0.59 0.45 0.37
0.61 0.62 0.61 0.60 0.63 0.59 0.47 0.38 0.36 0.35 0.40 0.43 0.48 0.53 0.54 0.51 0.50 0.52 0.52 0.45 0.39 0.37 0.39 0.45 0.54 0.71 0.97 1.35 1.57 1.63 1.76 1.79 1.75 1.68 1.60 1.57 1.41 1.21 1.05 0.92 0.82 0.62 0.50
0.78 0.73 0.70 0.68 0.68 0.65 0.53 0.39 0.36 0.38 0.46 0.48 0.51 0.54 0.58 0.57 0.55 0.47 0.48 0.47 0.46 0.45 0.39 0.41 0.46 0.57 0.74 1.02 1.42 1.55 1.60 1.55 1.51 1.35 1.23 1.26 1.29 1.30 1.27 1.16 1.02 0.87 0.71
1.07 0.99 0.88 0.86 0.84 0.85 0.75 0.51 0.45 0.46 0.51 0.57 0.67 0.68 0.61 0.56 0.53 0.47 0.49 0.54 0.50 0.46 0.49 0.50 0.49 0.49 0.53 0.68 0.98 1.23 1.29 1.27 1.17 1.16 0.96 0.91 0.94 1.01 1.13 1.07 0.97 0.91 0.85